Tracking 19720 objects as of 25-Jun-2019
HD Live streaming from Space Station
objects crossing your sky now

IRIDIUM 59


IRIDIUM 59 is no longer on orbit
IRIDIUM 59 is classified as:


NORAD ID: 25275
Int'l Code: 1998-019D
Perigee: N/A
Apogee: N/A
Inclination: N/A
Period: N/A
Semi major axis: N/A
RCS: N/A
Launch date: March 30, 1998
Source: United States (US)
Launch site: AIR FORCE WESTERN TEST RANGE (AFWTR)
Decay date: 2019-03-11
aabbcc
Your satellite tracking list
Your tracking list is empty




NASA's NSSDC Master Catalog

Two Line Element Set (TLE):
1 25275U 98019D   19070.42134782  .39186907 -16954-5  23435-3 0  9990
2 25275  86.4963  21.8254 0038973 104.7344  44.4092 16.51404550 96889
Source of the keplerian elements: AFSPC